Location: Long Geng
(2.6167°N, 114.1333°E)
Time: 21:01:42
(UTC+00:00)

BLOCK DM-SL R/B - Pass Details

Date: 27 September 2021
Orbit: 644 x 35622 km, 0.3° (Epoch: 24 October)

Event Time Altitude Azimuth Distance (km) Brightness Sun altitude
Rises 05:07:08 0° 269° (W) 13,534 10.0 76.1°
Reaches altitude 10° 05:16:30 10° 269° (W) 14,815 10.4 73.9°
Enters shadow 14:46:58 33° 263° (W) 4,134 7.2 -68.2°
